Regional Weather Roundup
Issued by NWS Burlington, VT

Home | Current Version | Previous Version | Text Only | Print | Product List | Glossary On
Versions: 1 2 3 4 5 6 7 8 9 10 11 12 13 14 15 16 17 18 19 20 21 22 23 24 25 26 27 28 29 30 31 32 33 34 35 36 37 38 39 40 41 42 43 44 45 46 47 48 49 50
000
ASUS41 KBTV 011130
RWRBTV
VERMONT REGIONAL WEATHER ROUNDUP
NATIONAL WEATHER SERVICE BURLINGTON VT
700 AM EDT MON SEP 01 2014

NOTE: "FAIR" INDICATES FEW OR NO CLOUDS BELOW 12,000 FEET WITH NO
SIGNIFICANT WEATHER AND/OR OBSTRUCTIONS TO VISIBILITY.

* THESE REPORTS ARE NOT UNDER NWS QUALITY CONTROL AND/OR DO NOT
  REPORT WEATHER SUCH AS PRECIPITATION AND FOG.

VTZ001>019-011200-
_____VERMONT_____


CITY           SKY/WX    TMP DP  RH WIND       PRES   REMARKS
BURLINGTON     PTSUNNY   70  67  90 SW7       29.96R
MONTPELIER     FOG       61  61 100 E3        30.03S VSB 1/2
MORRISVILLE    FOG       63  62  97 CALM      29.99S VSB 1/4
ST. JOHNSBURY*   N/A     66  66 100 MISG      29.97R
MIDDLEBURY*    FAIR      69  69 100 S6        29.99R
RUTLAND*       CLOUDY    64  63  94 CALM      30.01S VSB 1/4
SPRINGFIELD    FOG       64  64 100 CALM      30.01R VSB<1/4
HIGHGATE*      CLOUDY    68  67  98 CALM      29.96R FOG
NEWPORT*       PTSUNNY   65  64  97 CALM      29.99R FOG
BENNINGTON     CLOUDY    66  65  96 CALM      30.03R FOG
SUTTON*          N/A     63 N/A N/A MISG        N/A
GALLUP MILLS*    N/A      0 N/A N/A MISG        N/A
UNION VILLAGE*   N/A     64 N/A N/A MISG        N/A
MT. MANSFIELD*   N/A     59 N/A N/A NW9         N/A

_____LAKE CHAMPLAIN_____


CITY           SKY/WX    TMP DP  RH WIND       PRES   REMARKS
BURTON ISLAND*   N/A     70  68  94 S8          N/A
COLCHESTER RF*   N/A     68  68 100 SW16        N/A
DIAMOND ISL*     N/A     68  68 100 SW7         N/A

$$

NYZ007-026>031-035-052-083-011200-
_____NORTHERN NEW YORK_____


CITY           SKY/WX    TMP DP  RH WIND       PRES   REMARKS
PLATTSBURGH    MOSUNNY   64  64 100 CALM      29.95R FOG
SARANAC LAKE   CLOUDY    66  65  96 SW7       30.00S FOG
MASSENA        CLOUDY    68  67  96 W6        29.96S
OGDENSBURG*    MOSUNNY   66  66 100 SW5       29.97R FOG
POTSDAM*       CLOUDY    68  68 100 W6        29.97S FOG
PARISHVILLE*     N/A     68 N/A N/A SW5         N/A
WATERTOWN      CLOUDY    69  65  86 SW5       29.98S FOG
FT DRUM        CLOUDY    68  68 100 SW6       29.99S FOG
ALBANY         FOG       71  69  93 CALM      30.01R VSB 1
GLENS FALLS    FOG       68  67  96 CALM      30.00R VSB<1/4

$$
NHZ002-005-011-011200-
_____NEW HAMPSHIRE_____


CITY           SKY/WX    TMP DP  RH WIND       PRES   REMARKS
LEBANON        FOG       66  64  93 CALM      29.99R VSB 1/4
KEENE          CLOUDY    68  61  77 CALM      30.01S VSB<1/4
MT WASHINGTON  FOG       50  50 100 NW33        N/A  VSB 0
PLYMOUTH       FOG       65  65 100 CALM      29.99R VSB 1/2
WHITEFIELD     FOG       62  61  96 CALM      30.00R VSB<1/4

$$

_____REGIONAL QUEBEC LOCATIONS_____


CITY           SKY/WX    TMP DP  RH WIND       PRES   REMARKS
MONTREAL       PTSUNNY   68  66  94 SW6       29.94R
QUEBEC CITY    CLOUDY    64  61  88 NE9       29.93R
SHERBROOKE     CLOUDY    68  66  94 SW2       29.96S

_____REGIONAL ONTARIO LOCATIONS_____


CITY           SKY/WX    TMP DP  RH WIND       PRES   REMARKS
OTTAWA         PTSUNNY   63  61  94 W5        29.95S

______KEY______
VSB  - VISIBILITY IN MILES
WCI  - WIND CHILL INDEX
HX   - HEAT INDEX
$$
NNNN



USA.gov is the U.S. government's official web portal to all federal, state and local government web resources and services.